カタログに戻る

COSMOS 1832

運用中軍事PO
NORAD 17587·PAYLOAD·🇷🇺 Russia

打ち上げ Mar 13, 1987 から Plesetsk Cosmodrome

Loading…

次のパス (今後24時間)

TLE

最新Source: Space-Track

元期: Sep 14, 2026, 03:52 UTC

1 17587U 87026F   26257.16133237  .00000043  00000-0  17486-3 0  9995
2 17587  82.5701 144.6257 0009144 349.0752 164.7730 12.64348630822940

AllMySatでCOSMOS 1832をリアルタイム追跡

Download on the App Store